Location: Newark
(47.5500°N, 8.6167°E)
Time: 02:44:49
(UTC+00:00)

LO-87 - Visible Passes

Search period start: 02 April 2020 00:00
Search period end: 12 April 2020 00:00
Orbit: 473 x 491 km, 97.4° (Epoch: 01 April)

Date Brightness Start Highest point End Pass type
(mag) Time Alt. Az. Time Alt. Az. Time Alt. Az.
03 Apr ? 22:17:13 10° N 22:17:13 10° N 22:17:18 10° N visible
04 Apr ? 21:51:47 11° N 21:51:47 11° N 21:51:59 10° N visible
06 Apr ? 22:35:13 11° NNW 22:35:13 11° NNW 22:35:25 10° NNW visible
07 Apr ? 22:09:46 13° N 22:09:46 13° N 22:10:16 10° N visible
08 Apr ? 21:44:19 13° NNE 21:44:19 13° NNE 21:44:52 10° N visible
09 Apr ? 21:18:52 11° NNE 21:18:52 11° NNE 21:19:03 10° NNE visible
09 Apr ? 22:53:11 11° NNW 22:53:11 11° NNW 22:53:24 10° NNW visible
10 Apr ? 22:27:44 15° NNW 22:27:44 15° NNW 22:28:25 10° NNW visible
11 Apr ? 22:02:17 16° N 22:02:17 16° N 22:03:11 10° N visible
